Wind_Gust
7 7 4 6 9 9 8 8 8 7 6 7 7 7 12 13 13 11 13 13 10 10 9 10 9 11 15 15 14 15 16 21 20 20 20 20 18 18 20 21 21 22 20 19 19 20 20 18 19 16 18 18 15 10 11 15 17 21 25 23 22 21 20 21 20 19 20 21 24 16 19 22 22 22 20 20 19 19 19 20 18 18 18 17 17 17
11 8 4 8 9 8 8 7 6 5 5 7 8 8 12 9 14 13 14 15 15 8 8 10 6 8 11 12 15 14 22 21 19 19 21 21 20 19 20 21 21 19 22 25 27 26 22 26 23 20 17 15 23 21 14 18 20 20 20 23 22 18 18 20 23 24 23 21 26 28 28 26 23 21 21 20 19 21 20 19 19 20 19 20 19 18
10 5 5 7 7 5 8 9 6 5 5 5 6 9 9 13 11 13 12 10 15 10 12 8 10 12 12 12 12 15 15 15 17 16 15 19 21 20 21 20 21 24 26 26 27 24 24 22 24 23 21 16 15 16 20 19 18 19 20 19 20 21 22 22 22 26 32 29 24 21 20 20 19 16 20 22 21 20 20 21 21 20 20 21 20 18
11 8 9 7 5 6 6 8 8 8 6 5 8 8 12 11 12 16 8 8 11 12 10 8 10 13 9 8 13 14 14 13 14 15 17 18 19 18 18 17 20 22 26 25 23 24 25 22 21 23 26 24 16 14 18 19 22 21 20 18 20 22 21 22 22 27 31 31 22 9 7 11 16 22 18 17 18 20 20 22 23 21 21 22 21 21
6 10 5 7 10 7 5 7 8 10 13 6 5 9 10 9 10 12 18 17 10 9 6 6 12 11 10 12 16 15 11 17 20 19 20 18 15 10 13 19 19 20 21 23 25 25 27 29 27 21 19 20 21 15 18 20 22 23 25 23 25 25 24 22 24 27 26 17 11 11 15 11 10 8 12 15 16 23 25 24 21 23 20 20 21 20
8 7 3 7 8 9 9 9 6 6 13 13 8 8 9 10 13 13 15 18 17 14 6 12 15 9 9 9 10 11 16 18 16 21 21 21 23 24 23 22 23 25 23 21 21 23 23 24 25 25 24 23 19 19 20 23 25 22 24 23 23 22 22 23 24 26 21 19 20 20 20 19 18 19 21 23 25 23 22 26 22 21 22 21 20 20
5 6 9 2 8 7 8 6 4 4 9 7 15 7 10 11 10 10 11 10 10 10 10 5 8 19 10 10 12 10 12 14 15 18 19 20 22 22 21 22 23 24 26 24 23 24 25 27 28 27 26 23 22 23 21 22 22 22 23 24 26 25 24 24 24 22 20 18 19 23 26 25 27 28 27 26 26 26 25 24 24 24 22 23 22 19
6 5 9 9 8 8 6 12 10 5 8 14 8 9 8 10 13 12 11 7 12 8 11 9 10 10 12 14 6 11 11 18 20 20 22 25 24 23 21 21 20 23 20 22 22 21 21 24 25 26 25 23 23 22 21 23 22 22 21 22 23 22 23 23 23 20 21 24 22 21 20 22 23 23 24 23 22 21 22 20 20 22 22 21 21 21
3 5 6 6 7 8 7 6 9 5 8 16 13 10 13 11 14 13 8 8 7 6 13 14 9 7 6 10 9 14 18 21 21 19 22 23 24 24 24 24 22 22 20 19 23 24 23 23 24 24 25 23 21 20 22 23 24 24 23 25 24 24 23 23 20 22 22 23 24 25 23 22 21 22 20 19 18 20 18 19 18 20 19 20 21 21
6 4 2 7 7 7 7 8 4 6 11 11 14 13 14 13 7 6 6 6 5 10 8 7 10 7 12 10 13 8 15 20 20 17 19 19 21 22 25 25 25 24 23 23 23 22 23 25 25 24 20 20 20 21 23 23 23 23 22 23 24 24 23 22 21 22 22 23 23 21 21 23 22 19 16 17 19 20 19 24 23 21 22 20 19 19
7 8 7 11 5 5 4 7 3 6 3 13 6 13 18 10 10 7 11 6 9 9 8 3 7 6 11 9 10 14 11 12 17 20 26 28 27 25 22 22 25 27 26 25 25 22 21 20 20 20 21 20 19 19 19 22 23 22 23 24 26 28 25 23 24 23 24 23 21 23 22 23 23 21 19 20 19 19 18 20 24 23 23 22 22 20
9 6 8 6 4 7 3 10 4 5 6 12 16 13 12 14 16 13 12 10 12 7 7 4 13 3 7 5 7 10 8 10 13 16 23 28 28 28 24 26 25 23 23 24 23 23 21 23 24 22 21 21 20 18 17 21 22 24 25 25 27 25 23 23 24 24 25 25 24 22 24 25 25 24 25 27 26 24 23 22 22 21 20 19 19 18
10 7 6 6 5 10 9 8 13 12 13 17 13 16 18 11 19 18 19 20 6 7 5 10 14 8 7 8 8 7 8 10 14 16 19 24 27 28 27 26 26 23 21 22 21 21 21 21 22 22 22 20 19 19 17 19 25 29 28 28 28 27 25 25 24 25 25 24 24 25 24 24 25 28 27 28 26 23 24 24 23 22 24 20 20 20
12 10 8 10 8 7 9 14 19 16 17 16 15 10 13 16 14 10 11 8 11 13 8 9 6 6 8 8 8 7 6 9 8 13 15 20 22 26 28 27 26 24 21 21 20 20 20 20 20 19 20 20 20 18 20 18 22 26 27 25 29 30 28 26 25 26 25 26 27 25 25 25 25 22 22 22 22 21 21 19 22 24 22 21 22 22
11 16 9 8 11 6 8 8 4 7 8 6 5 7 7 12 10 10 9 9 9 13 18 16 7 7 6 8 11 9 7 7 10 17 19 19 19 17 21 25 23 24 22 20 20 19 20 21 20 21 20 19 19 18 19 17 17 23 25 27 27 27 27 26 27 26 27 28 26 25 25 24 21 22 24 24 22 18 18 18 19 17 18 19 21 24
4 12 13 5 5 5 6 5 5 8 5 5 7 9 12 6 6 6 8 6 8 13 17 11 9 6 8 9 8 8 15 17 18 24 24 25 25 25 27 26 26 26 26 23 20 21 20 19 18 19 19 18 18 18 18 18 17 19 23 25 28 27 27 26 26 27 27 26 26 25 24 23 21 19 22 21 23 29 29 29 28 28 22 21 19 18
8 8 4 8 8 8 4 8 10 6 10 11 10 8 8 6 8 6 8 6 5 6 15 8 14 11 13 8 10 14 14 18 22 26 27 27 24 22 23 25 24 26 26 24 23 22 21 20 19 18 18 19 18 18 19 20 19 18 22 23 26 25 25 26 26 26 25 24 24 25 24 21 19 21 24 28 27 27 22 21 23 23 26 28 28 29
4 16 9 4 3 5 6 9 11 11 4 7 11 9 9 5 9 8 8 11 8 7 15 8 10 12 11 16 10 18 20 21 24 27 27 24 23 24 23 23 25 27 26 24 22 20 19 19 20 21 19 18 20 19 20 21 19 18 18 25 27 25 26 26 26 26 24 23 23 24 25 22 24 25 26 27 26 25 24 22 21 19 20 22 22 23
5 12 8 4 4 6 6 6 10 8 11 10 6 6 11 7 8 8 10 12 12 13 16 12 6 9 7 12 12 16 19 22 26 30 31 31 30 27 27 27 25 24 24 24 23 23 23 22 22 22 21 22 21 20 20 21 21 19 17 18 25 28 29 29 27 25 26 24 23 24 24 25 25 24 25 25 25 24 24 24 21 22 21 20 20 22
6 5 14 6 4 4 6 10 9 8 4 7 8 11 5 8 4 6 7 5 7 10 12 9 7 17 8 10 5 15 19 22 28 30 32 32 29 30 30 29 26 25 24 25 24 24 23 24 23 23 22 23 24 22 21 20 20 19 19 17 21 26 28 26 24 23 23 24 23 22 23 24 25 27 27 25 24 24 23 23 21 21 20 21 21 21
5 4 7 12 7 7 10 13 8 8 6 9 14 10 14 10 6 6 5 7 6 10 8 14 17 10 8 6 11 14 18 24 26 30 31 31 29 28 27 28 26 25 25 25 25 25 24 23 23 24 22 22 22 20 20 20 20 19 18 18 19 24 24 25 25 25 25 24 24 23 24 25 25 26 25 23 22 23 24 23 22 22 21 19 21 21
8 5 10 12 13 8 6 9 7 10 7 7 6 4 5 5 8 8 11 7 5 7 12 11 23 20 12 6 11 13 20 23 26 26 29 28 30 30 28 25 24 27 25 24 24 23 25 23 23 23 24 22 22 21 20 21 19 18 18 18 20 23 25 26 26 25 24 23 26 24 25 25 25 26 23 21 22 22 22 22 23 21 18 19 21 21
6 8 3 10 5 5 8 10 13 13 12 10 7 3 6 6 10 11 8 10 7 9 6 8 15 15 9 7 16 20 24 24 25 23 26 27 27 27 28 26 25 23 24 27 27 25 24 23 23 24 25 25 23 23 21 20 20 20 18 18 19 23 25 27 28 27 25 25 24 25 25 24 23 23 21 23 23 23 23 21 19 19 21 20 19 21
7 7 7 7 6 9 9 7 7 8 8 9 7 6 5 5 7 11 9 6 6 8 7 7 12 19 7 8 22 23 26 25 27 22 24 27 25 26 27 27 27 27 25 26 26 26 26 24 23 23 22 24 24 22 22 21 21 21 20 18 17 21 27 28 28 26 25 24 25 25 23 22 22 22 23 23 23 22 21 19 24 20 21 21 19 22
14 7 6 9 13 11 6 5 8 5 8 6 4 5 3 4 5 5 3 4 7 6 6 8 19 16 13 22 23 24 28 34 31 31 25 27 28 26 26 25 24 25 26 28 31 30 28 28 27 27 25 23 24 24 24 23 22 22 23 20 18 19 21 25 26 25 25 24 25 23 23 22 22 22 23 24 22 21 20 19 22 22 23 22 21 21
7 6 6 7 11 15 17 18 18 10 7 5 4 5 4 6 7 7 5 5 7 7 6 11 22 19 22 22 24 25 27 33 35 33 30 23 23 27 26 27 28 27 29 29 30 30 30 30 29 27 27 26 24 25 25 25 24 23 23 23 18 20 18 22 22 25 25 24 24 23 23 23 22 23 24 24 21 21 21 21 20 22 23 23 23 22
5 4 5 8 8 10 13 15 5 12 4 6 5 3 9 4 4 4 6 8 9 9 12 16 19 28 28 27 26 28 30 33 34 34 36 35 32 30 26 27 28 28 28 28 28 30 30 29 30 30 29 29 28 25 25 25 25 24 22 23 21 23 23 19 20 21 23 23 22 22 23 24 24 26 24 22 22 21 22 22 21 21 24 24 25 24
6 7 7 8 10 14 13 12 10 9 10 6 7 7 7 7 7 7 8 13 6 13 16 10 11 22 24 25 24 29 30 29 31 31 33 34 32 32 31 33 31 33 31 30 31 32 31 31 29 31 31 32 33 30 28 25 25 25 24 24 22 18 20 22 21 20 21 21 21 21 23 25 25 24 23 20 21 22 22 23 21 21 22 22 22 24
5 7 8 4 9 7 7 11 17 14 11 9 11 7 7 8 8 10 10 14 6 9 19 19 16 20 24 21 23 28 30 30 31 29 26 27 29 28 28 34 35 35 34 34 38 34 32 33 32 32 32 33 31 31 29 28 26 23 23 22 22 20 19 19 21 21 20 21 22 23 22 23 23 20 17 18 20 22 22 22 21 22 20 19 22 23
8 6 9 5 11 7 10 13 13 15 7 5 5 8 8 8 12 14 13 8 10 13 12 16 16 19 21 21 23 28 27 27 28 25 26 28 29 27 31 34 35 34 35 36 37 35 33 33 34 34 34 33 32 32 32 30 26 24 23 22 20 19 18 18 20 21 21 22 23 22 20 21 19 18 17 18 20 20 22 22 22 21 23 24 25 23
8 14 7 4 5 9 11 8 6 11 7 8 7 6 7 8 9 10 7 8 5 10 13 15 16 22 17 17 21 24 26 25 26 29 30 29 27 30 34 34 33 33 34 35 33 34 34 34 35 35 34 33 32 32 32 29 27 25 23 21 19 18 17 19 19 21 22 23 22 21 19 19 19 18 20 21 21 20 20 21 22 21 23 22 19 20
4 12 5 6 8 12 9 12 10 4 4 8 7 10 14 10 9 8 13 10 7 11 10 14 18 27 25 25 25 24 27 29 28 27 29 30 28 32 33 33 33 33 34 34 36 36 36 36 36 35 35 35 35 33 30 29 24 21 19 18 18 18 15 17 19 20 22 22 19 17 18 19 19 19 20 21 23 22 21 20 21 23 20 21 22 21
7 6 10 5 6 11 7 15 11 5 8 12 14 14 12 9 5 7 7 5 13 8 15 23 23 21 23 22 25 27 27 25 28 27 28 26 28 29 31 33 34 35 35 36 37 37 37 36 34 35 35 33 33 32 28 26 23 20 18 15 16 15 14 18 19 20 20 19 19 18 18 17 19 20 21 22 23 23 22 22 22 23 23 23 24 21
2 2 7 4 7 9 8 9 4 5 9 11 9 8 10 7 6 10 14 12 10 11 16 11 17 21 20 21 23 30 30 29 27 26 23 23 32 33 33 33 34 34 36 36 36 35 35 36 36 36 35 33 31 29 28 22 17 17 13 14 12 15 15 16 17 18 18 18 18 18 17 18 19 20 21 22 24 25 25 24 24 22 22 22 22 22
3 4 5 4 5 7 6 5 7 8 16 9 7 6 3 5 4 9 14 12 10 10 14 15 17 17 19 19 19 23 26 28 24 25 23 24 27 29 32 34 34 36 37 36 36 36 36 36 35 35 34 30 30 28 25 20 13 12 10 10 13 13 17 17 18 15 15 16 16 15 15 16 17 18 17 19 20 21 23 24 23 22 21 22 24 24
5 6 7 7 7 6 10 8 12 14 9 6 11 7 5 4 2 4 10 10 9 13 14 13 16 17 18 21 20 22 25 29 25 19 19 26 30 32 33 34 34 34 36 36 34 35 35 34 33 31 30 29 27 27 22 17 14 10 12 12 14 14 14 14 14 14 10 12 12 14 16 17 17 17 16 18 20 20 20 19 20 21 20 20 22 22
10 8 6 8 5 8 5 6 16 12 10 9 10 11 13 13 13 7 11 13 12 11 16 15 18 17 17 18 19 22 25 26 18 16 20 30 33 31 31 31 31 32 32 34 33 33 33 32 31 30 30 28 26 26 27 27 20 12 9 9 10 11 10 11 12 12 12 12 12 15 16 16 17 17 17 18 25 24 19 19 19 18 17 18 20 20
7 9 4 7 8 8 3 10 16 14 9 13 13 11 5 5 4 6 7 13 9 11 12 9 16 20 17 17 21 22 22 27 35 35 31 32 31 32 32 30 31 32 33 32 33 33 34 32 30 29 31 27 27 28 28 26 22 13 10 11 12 14 14 16 18 17 16 17 16 14 14 17 20 19 18 17 18 20 19 18 18 18 19 21 19 21
10 13 10 12 6 9 8 7 9 7 15 12 10 9 8 5 9 7 8 10 10 10 15 9 15 16 16 18 23 23 26 33 30 28 29 31 33 32 31 31 30 31 32 31 30 31 33 30 27 26 27 28 32 33 29 27 24 20 19 14 14 14 16 18 17 17 19 18 17 18 18 16 17 20 25 25 23 19 19 20 20 18 17 18 18 19
10 9 11 14 8 4 4 6 8 13 12 4 10 9 9 8 10 7 14 15 11 14 13 11 15 17 15 15 18 18 21 28 32 32 27 28 28 28 29 30 31 32 31 31 32 31 28 26 28 31 30 31 30 28 29 26 22 20 19 17 13 13 14 16 15 14 9 12 13 13 19 19 15 14 17 22 22 21 21 18 16 17 18 20 24 25
6 7 9 3 3 5 5 9 9 17 15 7 7 8 8 5 6 20 18 22 15 12 14 11 14 15 12 13 16 20 16 18 23 25 23 25 30 33 32 30 28 26 27 28 31 27 27 26 24 25 25 26 28 27 25 26 25 25 24 22 22 23 20 16 13 15 15 13 12 14 16 18 19 20 16 17 19 20 17 19 20 19 20 20 18 18
5 3 5 5 5 5 8 6 14 14 16 8 6 9 7 10 18 12 15 8 9 12 13 11 12 13 10 12 13 12 17 18 18 17 22 26 28 28 30 31 32 35 34 30 26 31 32 28 26 32 33 30 32 28 26 25 25 23 23 21 23 22 18 16 16 14 9 12 14 17 20 19 18 19 20 15 15 16 18 19 20 22 22 22 22 22
10 6 6 4 6 6 6 7 12 11 8 6 7 4 8 13 13 13 7 9 5 8 9 11 9 12 10 11 13 15 17 18 19 18 19 24 27 28 30 31 30 30 33 36 39 36 33 29 32 33 28 27 27 26 26 25 24 23 21 24 22 21 20 16 12 11 13 14 15 20 20 19 17 17 16 18 19 18 18 17 17 17 18 20 20 22
6 6 6 8 12 6 5 10 10 13 10 6 7 7 8 14 7 7 7 5 8 6 7 7 9 10 11 9 14 15 17 17 19 20 21 22 26 28 28 29 30 30 29 29 28 29 28 28 28 29 28 27 28 26 25 26 26 26 25 25 25 24 20 17 13 9 14 18 23 20 21 20 18 16 16 16 16 17 18 18 19 18 20 20 20 20
10 7 13 7 6 10 12 15 15 8 9 8 10 11 8 8 5 8 8 7 5 9 5 6 10 12 11 9 11 15 17 15 15 17 18 22 24 26 27 27 26 27 28 28 29 30 28 30 29 32 30 29 28 25 25 25 24 26 27 25 24 24 22 19 18 17 16 23 23 24 22 19 19 17 15 13 13 16 18 18 18 19 17 17 18 19
5 6 4 4 11 7 10 14 7 6 6 8 8 10 8 7 5 6 6 4 6 9 7 6 8 9 11 8 10 15 15 15 15 17 16 18 22 24 26 29 30 30 29 29 30 33 30 29 27 30 32 28 28 26 24 24 24 25 24 24 22 24 21 21 20 19 18 18 31 32 25 20 21 21 20 22 20 15 16 16 16 19 18 17 18 18
5 5 5 8 3 4 17 4 4 9 6 6 7 5 6 6 6 6 5 7 7 6 7 7 8 9 9 9 10 13 15 15 14 16 15 16 19 22 25 26 26 26 28 29 27 27 29 27 30 32 32 31 30 27 25 26 25 22 23 24 22 22 21 21 21 21 21 24 24 27 26 22 19 22 20 22 18 16 17 21 19 18 17 18 18 17
10 4 4 6 3 7 18 10 11 8 9 6 8 7 7 8 7 6 8 6 6 6 6 8 6 8 7 9 10 10 13 14 12 14 15 16 17 20 22 24 26 26 26 24 24 24 24 28 28 30 29 30 29 26 28 28 27 25 24 24 24 22 21 21 20 20 20 20 20 16 17 17 15 17 16 14 15 15 14 14 19 21 21 19 19 19
6 6 7 6 9 13 9 11 10 7 10 8 6 9 10 8 7 5 5 6 3 4 7 9 6 8 7 9 10 9 10 14 12 12 13 16 16 18 22 23 23 23 24 27 28 28 28 24 26 27 29 28 26 26 25 24 24 26 25 25 27 25 23 24 20 21 22 24 22 20 16 15 15 14 12 14 13 12 12 15 15 14 12 10 14 20
6 8 5 6 7 11 12 11 3 10 12 13 8 8 10 10 6 4 2 3 4 4 5 6 10 8 7 8 8 8 9 11 13 11 13 15 15 17 18 22 22 22 23 23 23 24 25 25 24 24 25 25 25 25 26 25 25 24 23 22 22 23 25 25 23 20 24 22 21 21 19 17 14 13 15 19 16 15 12 9 11 13 17 14 12 14
7 12 10 9 9 14 13 12 9 8 7 14 12 7 7 6 8 6 6 5 6 6 6 4 7 9 9 9 7 7 8 9 12 10 12 14 16 16 17 18 22 24 24 23 23 26 26 25 25 24 25 25 23 24 25 26 25 25 24 22 21 20 20 20 18 18 21 22 20 19 18 18 18 16 15 13 14 12 14 16 13 13 17 14 10 12
Wind_Speed
1 3 0 2 5 4 5 2 3 3 2 1 0 0 4 2 5 4 3 6 0 1 0 3 3 2 4 6 3 4 8 13 13 12 11 11 10 10 11 10 9 10 9 8 6 7 9 10 11 8 8 10 10 5 4 4 5 8 11 11 12 11 10 10 9 9 9 10 9 9 10 11 10 10 9 8 8 8 8 9 9 10 9 9 9 9
2 4 2 2 3 4 4 3 4 3 3 1 2 3 7 1 6 3 4 3 2 3 3 2 2 4 3 4 4 4 15 12 11 11 12 10 10 9 10 12 11 7 6 11 15 16 13 14 13 11 8 10 15 13 7 4 7 8 11 13 12 9 9 10 12 11 11 11 12 13 14 12 10 9 9 9 9 10 9 10 10 9 9 9 9 9
4 3 3 4 4 2 6 6 4 3 2 3 2 2 4 5 3 7 2 1 2 2 5 1 2 3 5 3 3 9 9 5 6 7 6 9 11 11 11 11 12 13 13 12 12 13 14 14 13 11 10 7 6 10 11 7 4 6 8 10 10 10 11 11 12 10 11 11 10 10 8 9 7 8 8 9 9 8 8 9 9 9 9 10 9 9
3 2 3 3 2 4 3 5 6 4 2 2 5 3 4 3 4 5 4 3 5 1 3 1 2 3 1 1 4 4 5 3 3 5 6 8 10 10 10 9 10 11 14 14 11 12 13 13 13 12 12 11 9 8 11 12 8 5 7 8 10 11 12 11 12 12 13 12 8 4 4 5 7 7 7 7 6 7 8 9 9 9 9 10 10 10
2 4 0 2 7 4 3 3 5 5 6 2 2 2 2 4 4 3 5 5 4 4 1 1 5 3 4 2 3 3 2 3 3 3 6 8 7 5 5 7 9 10 10 12 13 13 12 14 15 13 11 10 10 8 7 10 11 7 8 10 11 12 13 12 13 14 10 7 6 5 5 5 4 3 5 5 6 8 9 9 9 10 10 11 11 11
2 2 1 3 5 6 4 5 2 2 6 7 3 5 3 3 6 6 4 5 6 3 2 4 3 0 1 1 1 2 3 7 5 10 10 10 12 13 15 14 12 9 5 7 10 10 9 9 11 13 13 12 11 10 7 7 10 11 9 8 9 8 10 12 13 13 10 10 10 10 8 8 8 7 8 10 9 9 11 12 11 12 12 12 11 10
1 2 5 1 3 3 3 1 1 1 4 3 6 4 1 4 4 4 3 1 1 2 3 2 2 1 2 2 4 3 3 5 4 8 8 9 11 11 11 13 13 13 14 12 9 8 11 12 11 10 11 12 11 11 10 8 7 11 10 9 9 9 9 11 12 12 10 9 10 13 13 13 13 12 10 11 11 12 11 10 11 10 10 11 12 11
0 3 5 5 4 3 4 6 1 1 2 4 4 0 4 4 5 2 1 3 3 2 2 5 2 0 1 2 2 3 1 6 10 10 10 10 10 11 10 11 12 13 13 11 11 10 8 8 8 11 10 10 11 10 9 10 8 9 10 11 10 9 10 10 9 10 12 12 12 13 12 11 12 13 13 13 12 11 10 11 11 9 9 10 10 10
1 1 2 3 3 3 4 2 2 1 1 4 8 6 6 6 4 1 2 4 2 2 3 7 5 2 1 1 4 3 8 9 9 7 8 9 9 10 11 11 12 12 12 13 14 13 12 10 10 10 11 9 10 9 8 9 9 9 10 9 10 11 11 11 9 9 12 13 14 14 13 12 11 11 10 10 10 10 10 10 9 10 10 10 11 10
2 1 1 4 3 3 4 2 2 4 3 5 7 3 1 1 1 1 3 3 1 3 0 4 5 1 5 4 5 3 3 7 6 6 8 9 11 11 12 11 11 11 10 10 12 13 13 10 9 7 8 8 8 8 8 8 8 8 9 10 11 13 12 12 10 10 12 14 13 12 12 14 11 9 7 7 9 9 9 11 11 10 10 9 10 11
2 5 5 4 0 1 2 3 2 2 1 7 2 4 5 5 3 3 5 3 4 3 2 1 4 1 3 2 1 3 2 3 4 3 6 9 10 10 9 10 12 13 13 12 12 12 13 12 11 9 8 8 7 6 7 8 8 7 8 9 11 13 12 12 11 11 13 14 13 13 14 14 14 13 10 9 10 9 9 10 11 10 10 10 11 10
5 1 0 1 1 2 1 1 1 0 2 5 5 4 3 1 6 3 5 4 3 2 2 1 4 1 3 2 4 2 2 2 2 7 11 13 13 12 11 11 12 12 12 13 12 13 13 14 13 12 12 10 10 7 7 7 7 8 7 8 10 11 13 14 12 12 13 12 13 13 14 15 15 13 11 12 13 13 13 13 12 10 10 10 10 10
1 1 2 5 2 4 3 2 3 0 6 8 3 8 8 3 5 2 7 6 1 1 1 1 3 2 3 3 4 4 3 2 2 4 8 10 11 12 11 12 11 11 11 11 12 12 12 12 13 13 13 12 11 10 9 9 8 7 7 7 9 11 10 12 14 13 14 12 13 13 14 14 12 12 12 12 12 12 12 11 11 10 11 10 10 10
2 2 5 6 4 1 2 5 7 6 6 7 6 3 5 4 5 2 4 1 4 5 3 2 2 2 2 4 4 3 2 1 1 4 6 8 10 11 12 12 12 12 11 11 11 10 11 11 11 12 12 12 11 11 10 10 9 8 7 8 8 11 9 9 11 15 13 12 12 12 13 13 12 12 12 11 11 11 11 10 11 11 11 11 11 10
2 3 3 3 1 2 3 3 1 2 2 0 1 1 3 5 2 0 2 1 3 6 7 3 0 1 3 1 3 4 2 1 3 8 11 11 10 10 10 10 11 12 12 11 11 11 11 12 11 11 11 11 11 11 11 10 10 9 9 8 9 10 9 8 9 8 11 10 7 8 10 11 10 11 11 11 10 10 10 9 10 9 7 7 7 8
0 4 6 3 4 2 2 1 0 1 1 1 3 4 5 0 2 1 2 2 2 4 6 3 1 2 2 1 2 3 4 5 9 14 14 16 15 16 15 15 15 13 12 12 12 12 13 12 11 10 11 10 10 11 11 11 10 10 10 10 9 10 10 9 9 10 10 10 8 7 8 10 10 9 10 9 8 8 10 11 12 12 11 9 5 5
2 2 1 5 4 4 3 1 3 1 0 2 2 2 2 3 4 1 2 1 1 2 5 1 5 3 5 4 5 6 10 11 12 13 14 16 15 14 14 15 15 14 13 12 13 12 13 13 12 11 10 11 11 11 11 12 11 11 12 11 11 11 9 8 9 10 10 8 8 10 9 6 9 9 10 11 12 12 12 12 11 11 11 11 12 14
1 7 3 2 1 1 2 4 4 5 0 1 4 2 1 2 2 3 1 3 3 1 5 2 2 5 4 1 3 8 12 13 12 11 12 13 14 14 13 13 15 15 14 13 13 13 12 11 12 12 11 10 11 12 13 14 12 11 10 11 12 12 11 9 7 9 9 9 9 9 9 8 8 9 10 11 12 12 11 10 9 8 9 11 10 10
2 3 2 1 2 4 3 2 3 3 5 4 2 2 1 0 1 2 3 3 2 3 4 4 2 3 3 3 6 10 10 13 12 10 10 13 13 12 12 14 14 14 13 13 13 13 14 13 13 13 13 13 12 12 12 13 13 12 11 11 11 12 11 10 8 7 10 11 9 9 11 11 10 8 10 10 11 10 11 12 11 11 11 10 11 11
2 1 4 2 1 2 2 4 3 4 1 2 0 2 1 2 1 0 0 1 3 3 4 3 2 5 2 2 1 5 7 10 13 13 13 15 14 13 13 13 14 14 14 14 14 13 13 14 15 15 14 14 14 13 13 13 12 12 12 11 12 11 10 9 9 8 10 13 13 12 11 10 9 10 11 11 10 11 12 12 12 12 11 12 11 12
0 1 1 3 3 2 2 4 3 2 2 4 4 3 3 2 1 2 1 1 2 1 2 4 5 2 1 3 3 4 7 9 11 14 14 14 15 15 15 14 14 15 14 14 15 15 15 14 14 15 14 13 13 12 12 12 12 12 11 11 12 12 12 10 9 8 9 9 12 12 11 11 11 12 12 12 11 11 12 12 11 12 12 11 12 12
1 0 2 4 6 3 2 1 3 2 1 1 1 2 2 1 1 1 2 2 1 1 2 3 8 5 3 2 0 5 6 10 12 12 14 14 15 15 15 15 15 15 15 14 14 15 15 15 14 14 14 13 12 12 13 12 12 12 11 11 11 11 10 10 9 7 8 7 9 12 12 12 12 12 11 12 11 11 10 11 11 11 10 12 12 12
2 3 1 4 1 1 2 3 2 2 3 2 1 1 3 2 4 4 1 2 2 2 1 2 5 5 2 1 6 7 11 12 11 11 13 13 14 14 15 16 16 14 15 16 17 15 14 14 14 14 15 15 14 14 13 13 12 12 12 11 11 11 12 10 10 8 7 7 8 12 11 11 11 12 13 13 11 11 11 11 11 10 11 11 11 11
3 1 1 3 3 0 1 1 1 1 1 1 2 3 1 0 1 3 2 2 1 3 2 2 3 5 2 2 8 13 12 9 9 9 11 12 11 12 13 14 16 16 15 15 15 15 15 15 14 14 14 14 12 12 14 13 13 13 12 11 10 11 13 11 9 8 8 8 10 11 10 10 11 13 13 13 12 13 12 10 10 10 11 11 10 11
1 1 2 1 4 4 2 2 2 1 1 1 1 0 2 2 3 1 1 1 1 3 3 1 6 5 3 6 11 10 12 13 13 13 11 12 11 12 13 13 13 15 16 17 17 16 16 17 17 16 15 14 13 12 12 14 14 13 14 12 11 11 11 11 9 8 8 9 10 9 11 12 12 13 14 15 13 13 12 10 10 10 11 10 10 10
1 2 2 2 3 6 7 7 5 2 4 1 0 0 1 5 4 1 1 1 2 2 1 2 7 7 5 10 12 11 13 14 13 13 14 11 11 12 11 12 15 15 17 19 19 19 20 18 16 16 17 15 14 13 13 13 14 14 13 14 11 11 11 11 9 9 9 8 9 9 12 13 13 14 15 15 13 14 12 11 11 10 10 10 11 11
1 0 1 3 3 4 5 5 1 4 2 1 2 1 2 2 2 2 3 4 3 3 3 8 8 15 14 11 12 15 14 14 16 16 17 17 17 17 15 13 14 15 17 18 17 17 18 19 20 19 18 17 17 16 14 13 14 14 14 14 13 11 11 11 9 9 9 8 9 10 12 13 14 15 14 13 12 11 11 11 11 11 11 11 11 11
2 2 3 3 5 6 2 3 6 4 4 3 5 5 3 5 5 5 4 4 3 0 8 3 6 8 12 13 14 15 15 14 13 15 15 15 16 17 17 18 20 20 20 18 19 21 20 20 19 18 19 19 19 18 16 15 14 15 14 14 13 11 10 9 9 9 9 9 9 11 13 14 15 15 14 12 10 10 11 11 10 11 11 10 11 12
1 1 3 1 3 4 5 3 4 2 4 4 7 5 5 6 5 7 6 9 4 4 9 4 6 10 11 12 14 13 13 12 14 15 15 15 14 14 15 17 19 20 20 20 21 21 20 20 20 21 20 19 20 20 19 16 15 14 14 13 13 11 11 10 9 10 9 9 11 12 13 14 13 12 11 10 9 9 10 11 11 10 10 10 11 10
2 2 2 1 3 3 4 1 2 5 1 1 4 6 5 6 8 9 8 4 6 9 7 8 10 11 11 13 14 13 11 11 12 12 13 14 15 14 14 16 18 18 19 19 20 22 21 22 21 21 21 21 20 20 19 17 15 14 14 13 12 11 11 9 10 10 10 11 12 12 12 13 11 11 10 10 11 11 10 10 10 10 10 10 10 9
3 4 1 0 1 3 4 4 1 2 1 2 4 4 3 3 4 6 3 5 1 6 8 10 10 12 9 9 9 8 10 10 10 12 15 15 13 13 15 16 18 18 20 19 20 22 21 22 22 22 21 20 20 20 19 17 16 15 14 12 11 11 10 9 9 10 10 11 12 11 11 11 11 11 12 12 11 10 10 10 9 9 10 9 9 9
1 4 2 2 2 4 3 2 2 2 2 3 5 6 7 4 3 2 2 6 5 7 5 6 7 9 10 7 7 8 9 10 12 12 14 14 13 13 16 18 20 21 20 19 21 21 21 22 20 20 21 22 22 21 18 17 14 12 11 10 10 10 9 8 9 10 10 11 11 10 11 11 11 11 11 11 11 11 10 9 9 9 9 9 10 8
1 1 2 1 2 2 4 0 1 3 4 6 8 9 8 6 3 3 4 3 9 5 2 5 7 8 11 10 12 14 11 12 12 10 13 16 14 15 16 18 19 18 19 20 20 21 21 20 19 20 21 20 19 18 18 16 12 11 8 8 8 7 6 7 9 9 10 11 11 11 11 11 11 11 11 11 11 10 10 10 10 10 9 10 10 9
1 1 1 1 0 1 5 2 1 1 4 3 3 3 6 2 1 3 7 7 6 6 7 5 7 9 10 11 11 14 14 13 13 13 12 13 10 14 17 17 19 19 19 20 20 20 21 19 19 20 21 21 19 18 17 14 10 6 4 5 5 6 7 8 8 8 10 10 11 10 10 11 11 12 11 11 10 10 10 11 11 10 9 8 8 9
0 1 0 0 1 1 3 3 2 2 7 4 3 3 2 0 2 5 9 8 6 6 9 10 11 11 12 10 10 12 12 12 9 13 14 12 8 13 17 18 19 19 20 20 21 21 21 22 22 21 21 18 18 17 15 12 8 4 3 4 5 6 7 7 7 8 9 9 9 9 9 10 11 10 10 10 10 10 10 11 10 10 9 9 9 10
2 2 1 1 3 2 2 3 2 5 4 4 7 3 2 1 1 0 6 6 5 8 9 6 10 11 11 12 11 10 11 12 10 11 12 8 7 12 15 16 18 18 20 19 20 20 20 20 21 19 18 17 16 15 13 10 9 6 5 3 5 5 5 6 6 6 6 7 8 9 9 10 10 10 10 10 10 11 11 11 11 11 9 8 8 8
4 3 2 0 0 1 1 3 7 5 5 3 1 0 2 3 2 1 3 6 4 4 5 5 8 10 11 10 11 12 12 9 7 7 6 5 10 10 13 15 16 18 18 19 18 19 19 19 19 19 17 16 16 15 15 15 12 8 5 4 4 3 4 4 4 5 5 6 6 7 7 8 9 9 10 10 10 11 10 10 10 9 8 9 8 8
2 1 2 1 1 3 0 3 5 5 1 5 7 5 3 2 2 3 3 6 5 6 5 4 7 10 10 10 12 13 13 12 10 5 5 8 10 13 15 15 17 18 18 19 20 19 20 20 19 17 16 16 16 17 17 16 14 8 6 6 3 1 2 2 1 0 2 4 5 6 6 6 7 8 8 9 10 10 10 10 9 10 10 11 10 10
5 5 5 3 1 1 1 0 1 1 5 5 4 5 1 1 6 5 3 4 4 3 3 4 6 8 8 10 12 11 12 14 13 12 13 16 17 16 16 17 18 18 19 19 18 18 18 18 17 17 16 18 19 19 18 17 15 12 12 9 7 6 6 5 3 3 3 3 1 2 4 6 7 8 8 9 9 9 9 9 9 8 9 9 10 10
1 2 2 2 1 1 2 1 2 4 3 1 6 4 1 5 6 2 5 4 4 2 4 2 5 8 8 8 7 8 10 13 15 16 16 15 14 16 17 18 19 20 20 20 19 18 18 16 16 18 19 20 19 18 17 15 13 13 10 11 8 8 6 4 1 3 3 3 4 4 4 3 4 5 6 6 4 4 6 6 6 7 8 8 8 8
1 2 4 1 1 1 2 2 2 5 5 4 4 2 3 3 2 1 4 8 2 2 3 1 5 6 4 6 5 6 6 8 12 15 14 13 14 16 16 15 16 16 17 18 19 18 16 15 14 15 16 15 17 16 16 15 15 15 14 13 13 15 12 11 8 3 3 5 6 5 4 4 4 4 3 3 4 4 5 6 7 8 9 9 9 9
1 1 0 2 1 2 4 3 5 5 7 4 1 6 4 2 2 3 6 2 1 4 4 2 4 6 4 4 5 4 9 10 11 11 12 13 12 13 15 16 16 16 17 16 16 16 15 14 16 17 17 16 17 15 14 15 15 14 13 12 14 13 9 9 8 4 1 3 5 6 6 6 5 6 6 5 4 4 5 4 5 6 8 8 8 10
3 2 2 1 1 2 2 1 4 2 2 3 5 2 1 0 5 5 2 2 2 2 3 5 3 6 2 4 6 8 10 10 10 11 11 11 12 14 15 15 16 16 17 19 20 19 18 15 16 15 14 14 15 13 14 16 16 14 13 14 14 11 11 10 7 5 1 1 1 3 5 6 6 6 4 5 5 5 5 5 6 7 7 8 9 11
2 0 1 2 5 1 0 0 1 5 2 3 4 2 3 7 2 3 3 3 2 1 2 3 4 4 4 4 7 9 9 8 9 10 10 11 12 13 15 15 15 15 16 16 16 16 17 15 14 14 13 11 14 13 14 14 15 15 15 16 12 12 10 10 8 6 5 6 6 5 2 1 4 5 5 6 5 4 6 6 7 8 8 8 9 10
5 2 5 1 2 3 4 6 7 4 3 4 6 6 4 4 2 5 4 3 2 4 3 1 4 6 5 4 6 7 6 7 8 9 9 11 11 12 13 14 14 15 15 16 16 17 15 14 16 15 16 16 18 14 14 14 14 17 18 15 12 14 13 11 8 7 6 3 2 1 1 1 3 5 5 5 6 6 6 7 8 8 8 8 9 10
1 3 1 1 4 3 4 8 4 2 3 4 5 6 5 3 1 3 4 2 3 6 4 3 4 5 7 4 3 6 6 7 8 9 9 10 10 11 13 14 14 14 15 15 15 16 15 14 15 15 15 14 14 14 14 14 13 16 14 14 13 13 11 12 12 11 9 7 6 4 2 3 5 6 6 7 7 8 7 7 8 9 8 8 9 8
2 1 1 2 1 2 4 1 1 5 3 2 3 3 4 4 4 4 2 3 4 4 3 4 5 6 6 5 4 5 8 7 7 8 8 8 10 11 13 14 14 14 15 16 15 16 15 14 15 17 18 18 15 14 13 12 10 11 14 14 13 13 12 13 13 12 10 9 11 14 14 13 8 4 6 8 7 7 7 6 8 9 9 10 9 9
4 2 1 3 1 3 7 5 5 4 4 4 4 4 4 5 5 4 4 4 3 2 3 4 2 5 3 5 4 4 7 7 6 8 8 8 9 10 12 13 14 14 14 14 14 15 14 14 15 17 17 16 15 13 13 13 11 13 13 12 12 13 12 11 11 10 10 12 11 8 9 9 12 12 7 5 5 5 5 6 7 9 10 10 9 9
1 2 2 2 2 6 5 7 5 3 4 5 4 5 6 4 4 4 4 4 2 3 3 3 3 5 3 6 5 4 5 8 6 5 7 7 8 9 11 12 13 13 13 14 14 14 13 13 15 16 16 15 14 13 13 14 12 10 12 15 15 12 11 10 10 11 11 12 11 9 7 8 9 8 4 4 6 5 6 7 7 7 6 5 5 8
2 4 2 1 3 5 5 4 0 3 4 3 4 5 6 6 4 2 0 1 2 2 3 4 6 3 3 5 4 4 4 6 6 5 7 7 7 9 10 11 12 13 13 13 11 13 14 14 14 15 16 14 14 14 15 14 14 14 13 10 9 13 15 14 12 12 10 8 7 7 8 8 8 6 7 4 2 1 2 3 2 3 4 5 6 8
4 6 5 4 4 6 7 6 4 3 3 7 6 4 3 3 5 4 4 4 3 4 4 3 4 6 6 5 1 2 4 4 6 5 6 7 8 8 9 10 11 11 12 13 13 14 15 14 14 14 14 13 13 13 13 13 13 13 13 12 10 9 8 9 9 9 10 11 9 9 7 7 7 9 7 7 7 1 3 4 4 3 2 2 2 4
Wind_Direction
125 79 69 266 249 254 272 219 231 263 205 221 73 189 253 252 281 265 261 261 283 18 239 278 292 287 302 30 28 26 50 48 38 33 30 23 20 19 17 23 18 12 360 334 325 341 348 354 355 357 357 355 343 311 282 251 222 186 179 176 187 188 180 175 174 176 173 178 182 184 190 196 192 189 187 187 185 182 189 185 185 181 185 186 186 191
65 57 331 249 244 262 303 12 18 27 46 24 288 346 316 317 289 269 282 331 333 48 277 299 9 299 29 40 38 33 58 43 36 31 25 20 15 16 16 9 11 359 339 353 357 354 355 355 353 354 5 5 1 343 320 258 228 211 188 185 190 177 180 184 185 183 183 184 187 187 194 191 186 184 186 189 189 191 189 189 190 184 181 186 191 190
32 70 314 296 303 68 61 51 52 67 355 15 27 292 336 298 241 292 288 324 322 355 257 305 32 328 47 64 42 57 69 68 50 48 36 20 16 11 8 7 1 2 359 355 355 351 350 347 349 351 351 4 3 338 333 290 252 237 218 200 185 183 183 191 191 185 190 194 195 195 196 187 184 199 202 198 190 182 182 192 193 189 184 184 192 193
21 281 270 303 17 73 35 40 37 29 59 6 346 11 287 268 22 314 285 349 327 256 276 333 293 14 24 71 54 43 75 73 58 49 36 32 22 11 5 0 358 1 358 355 352 347 343 342 341 344 347 348 349 352 350 342 297 238 217 214 194 191 192 192 192 194 199 195 179 151 134 174 184 194 198 188 172 177 178 190 195 196 189 187 191 194
201 247 156 63 42 67 65 5 47 25 330 273 215 228 256 310 285 225 288 325 313 312 189 64 54 45 3 5 6 24 12 64 32 33 36 27 24 3 346 8 17 1 354 349 345 346 348 345 340 336 331 336 341 345 349 339 322 277 235 214 207 197 194 194 194 197 188 156 122 134 127 145 123 94 163 162 179 188 192 192 192 199 191 190 194 193
325 277 182 42 33 38 59 17 14 35 335 333 253 190 234 266 289 285 307 348 17 346 342 38 39 77 278 288 40 307 15 28 3 29 21 10 8 7 4 356 350 357 6 349 341 336 333 333 329 331 332 337 333 334 335 327 316 299 271 242 229 228 210 201 200 194 173 171 163 166 165 170 186 188 185 189 185 190 196 198 195 197 193 192 195 194
178 353 67 84 72 40 60 80 266 93 338 19 295 187 233 282 270 273 300 58 23 75 303 15 141 219 322 46 1 337 18 8 6 36 19 11 9 7 360 351 349 346 343 344 341 338 339 337 335 330 329 328 328 323 324 321 317 310 278 258 238 225 231 221 205 187 177 169 181 184 186 186 188 192 197 195 195 195 198 197 197 197 195 197 195 193
356 349 35 34 54 49 23 15 285 122 49 301 240 44 333 299 280 257 194 164 220 239 302 28 92 137 298 302 351 337 42 10 15 11 10 9 2 1 355 350 347 343 340 336 332 332 330 325 324 321 319 318 316 313 317 318 318 318 298 259 241 235 228 228 221 191 185 180 188 192 196 195 196 195 195 195 197 196 194 194 193 188 194 199 205 199
95 3 47 23 48 34 18 255 259 163 159 258 295 335 297 264 258 216 159 153 209 88 338 344 357 75 273 264 316 7 28 8 9 0 356 356 357 353 351 347 342 341 336 333 330 329 329 326 324 318 315 313 310 313 313 312 310 311 309 266 242 234 235 231 221 210 199 193 193 194 193 197 205 202 203 197 196 193 193 194 192 191 193 193 198 203
314 151 180 120 86 347 262 262 223 149 29 286 301 321 348 46 81 124 119 107 14 69 324 346 348 83 284 289 352 334 65 8 345 337 349 354 351 349 345 340 337 334 332 329 323 321 319 318 312 304 298 305 306 304 304 302 304 310 321 305 245 234 231 234 220 211 214 208 200 198 197 198 200 199 195 183 196 199 192 198 194 190 192 193 194 202
280 306 179 76 156 253 291 270 169 137 174 281 359 14 6 32 28 28 56 86 64 30 255 100 354 114 304 302 294 44 5 238 297 319 341 346 348 347 343 338 337 336 332 330 325 320 315 315 312 312 309 303 304 300 301 303 306 308 310 319 296 239 234 238 231 216 214 216 210 203 198 198 200 195 187 183 194 198 198 203 199 194 194 193 196 194
352 357 61 287 28 312 55 335 60 93 282 30 14 341 13 341 15 27 350 37 81 300 255 228 342 186 171 293 278 243 264 268 303 350 344 347 345 343 340 337 335 332 328 324 324 321 320 319 318 320 318 318 313 311 304 302 300 304 305 303 302 294 238 227 233 226 223 217 220 212 203 200 202 190 188 189 193 194 199 201 200 197 194 196 195 193
73 54 290 296 317 27 331 40 320 1 357 24 18 20 70 297 25 345 8 4 16 119 187 86 5 46 240 215 208 226 247 297 353 344 338 341 339 337 334 332 328 325 324 322 319 319 318 317 318 319 317 319 319 316 312 306 302 296 298 294 295 287 286 243 223 228 230 222 221 222 212 207 201 194 192 192 194 194 198 200 204 200 199 193 193 194
285 279 359 328 9 45 86 43 336 7 358 9 39 34 61 41 37 350 287 216 316 292 267 11 315 209 257 293 212 201 234 202 283 295 344 347 342 332 330 329 325 323 322 319 316 314 312 311 311 310 311 312 311 311 309 309 306 301 292 293 285 287 285 278 247 219 226 231 228 228 228 211 199 195 191 194 194 195 199 200 204 203 202 198 196 188
42 346 311 6 2 342 56 136 153 236 324 266 198 120 159 141 144 307 262 303 246 255 293 291 73 245 19 248 207 190 138 273 291 345 352 344 338 333 326 325 323 321 323 321 316 314 311 309 307 307 305 304 305 306 308 309 307 301 295 289 290 289 290 274 258 250 221 219 227 248 247 237 211 195 192 194 194 189 190 192 195 204 213 215 199 188
250 226 256 238 254 6 64 326 101 83 77 274 145 103 61 6 145 140 205 181 298 325 322 330 234 195 192 249 28 44 359 333 348 359 345 343 344 342 338 335 329 323 319 319 317 314 312 309 307 306 304 302 301 301 303 304 304 300 294 289 283 279 282 278 260 238 232 222 201 201 255 260 238 213 193 191 188 190 191 190 194 197 189 175 182 244
33 321 284 317 7 39 341 328 8 280 19 280 53 29 242 180 106 81 18 17 53 48 259 235 312 316 295 25 19 7 358 353 359 350 343 337 336 336 333 329 322 317 318 318 317 315 312 311 309 304 300 302 300 300 301 301 299 295 292 291 288 284 277 272 262 239 232 224 200 200 189 243 259 234 200 187 189 190 193 193 196 195 198 195 193 194
156 263 296 33 1 22 99 94 73 35 193 45 51 247 141 145 131 126 219 335 62 118 266 13 252 308 32 306 314 6 356 350 350 339 331 325 329 332 327 319 316 315 314 312 310 309 307 303 302 304 301 296 296 297 300 299 299 291 286 281 283 283 281 275 262 233 220 212 203 202 188 180 232 248 230 200 192 192 192 196 196 192 197 203 199 211
109 346 304 298 233 287 349 41 25 18 42 89 137 157 89 296 338 321 88 349 9 321 282 304 244 251 201 256 4 358 348 339 329 325 322 324 325 321 316 313 310 310 312 314 316 315 314 311 308 306 302 300 297 295 293 294 293 290 284 279 275 276 272 265 259 242 223 215 210 198 195 192 188 221 244 231 200 191 195 197 195 196 199 198 197 203
48 173 299 309 89 318 33 29 27 325 356 75 85 16 102 96 158 84 189 177 121 270 348 272 333 284 230 159 20 341 341 329 329 331 330 323 321 320 321 317 315 316 316 317 316 314 310 310 308 306 304 302 301 300 295 292 290 286 284 282 280 276 270 264 253 244 232 222 220 210 201 187 182 189 224 233 213 193 200 200 195 198 199 200 200 205
138 94 262 273 309 37 9 357 18 10 322 334 24 341 358 39 212 100 38 97 149 198 217 296 301 264 254 184 49 344 336 333 335 329 323 319 318 320 320 319 316 315 316 315 315 313 312 308 305 304 301 296 294 291 290 287 286 283 282 279 276 276 276 266 259 246 248 232 222 218 195 188 188 192 203 222 227 212 201 200 197 198 199 194 200 201
73 23 236 305 4 14 216 256 320 322 214 136 122 92 166 10 25 56 281 41 352 207 265 309 279 271 232 146 75 358 328 342 337 323 315 312 314 315 316 316 316 315 315 313 311 310 308 308 303 300 297 296 293 290 289 286 282 280 277 275 276 273 269 269 263 252 250 250 230 215 204 191 189 196 198 209 219 223 209 201 198 198 193 199 203 200
143 163 78 295 218 260 251 359 325 43 65 53 61 93 97 100 99 98 103 280 358 258 271 246 292 289 145 192 352 343 346 336 322 313 308 309 311 312 314 315 313 311 311 313 313 309 306 303 303 300 297 294 293 291 287 286 281 278 276 274 272 269 270 263 261 257 254 251 248 224 213 196 192 192 194 201 208 219 220 208 199 194 196 199 201 202
123 59 35 297 315 272 211 268 348 47 62 30 40 77 77 29 183 170 176 183 168 319 19 311 242 263 268 316 340 346 326 315 304 300 300 304 303 305 308 310 311 312 313 311 308 307 307 307 304 300 298 296 293 290 290 284 283 279 275 271 268 268 269 267 260 254 252 251 246 231 208 201 198 194 195 199 202 208 216 211 200 197 201 201 197 199
60 291 118 351 357 340 332 279 310 320 85 126 203 208 112 77 72 135 124 53 280 206 220 259 265 265 268 337 334 316 312 310 309 309 311 309 308 309 309 308 308 311 312 312 312 311 310 310 309 306 301 296 293 288 282 284 280 278 277 271 264 265 264 263 260 255 250 254 256 234 205 201 198 199 200 201 198 200 204 208 205 199 199 198 202 200
27 216 111 330 334 348 342 341 316 287 220 239 214 285 158 139 131 102 65 58 164 288 161 210 263 257 305 317 302 310 312 310 309 311 312 307 306 309 307 311 315 318 317 316 317 318 318 314 308 305 303 300 296 290 286 279 278 275 272 269 263 260 260 259 255 250 248 248 253 239 209 199 199 203 204 202 198 194 193 200 205 201 197 196 200 199
180 74 155 156 181 256 234 228 235 109 66 163 231 150 224 121 120 103 93 115 210 219 225 237 256 290 298 307 312 313 316 313 316 321 322 322 321 319 318 318 316 314 314 314 314 314 312 309 309 306 303 300 298 293 286 280 275 273 267 266 262 253 252 253 249 245 244 244 243 236 210 200 201 204 204 201 198 191 186 192 201 200 198 196 198 199
67 347 262 193 220 237 279 245 185 164 148 196 146 242 210 160 163 146 169 230 154 350 270 235 238 270 297 302 305 308 309 310 313 314 315 314 316 317 321 320 318 318 318 317 319 319 312 308 305 303 303 302 299 295 288 281 272 268 264 260 259 250 246 246 240 240 238 239 240 232 211 202 203 203 201 196 192 189 186 187 195 202 200 195 199 202
143 253 278 114 270 308 297 244 165 147 161 174 192 196 212 174 154 180 226 239 164 192 247 263 278 284 287 290 292 292 294 302 307 306 302 303 304 311 313 315 314 315 314 316 318 315 312 310 309 306 304 300 298 294 288 282 277 265 259 250 250 246 242 240 236 234 232 233 236 229 210 202 202 200 195 186 182 187 187 187 193 200 199 197 200 202
87 254 247 187 286 348 347 9 175 148 127 109 219 228 220 158 209 216 247 241 189 235 251 271 280 276 274 281 284 286 293 298 299 297 300 306 309 308 310 312 312 313 316 315 316 315 314 313 309 306 306 303 298 296 291 282 271 264 254 247 240 238 236 231 233 234 232 231 232 225 207 198 195 188 182 179 183 188 188 187 189 194 200 202 202 201
99 276 199 145 351 335 346 11 21 57 88 249 271 269 262 226 258 252 255 284 272 295 269 265 276 282 269 253 266 282 294 296 299 305 308 306 307 314 317 315 315 318 321 317 315 314 310 309 308 307 304 302 301 298 293 283 274 266 249 239 234 230 228 219 228 230 231 235 235 225 201 189 189 180 181 183 183 182 183 186 185 192 196 198 198 196
48 273 55 71 348 312 343 345 329 11 6 327 299 299 284 260 272 244 200 221 159 243 267 291 289 292 295 291 286 291 295 304 307 309 311 311 312 316 322 321 323 323 321 317 315 310 308 310 309 309 310 309 307 301 296 288 275 263 241 228 224 225 221 216 221 229 234 237 237 219 195 187 182 181 182 179 181 181 183 181 182 191 193 189 190 190
156 96 338 20 345 265 300 17 353 356 317 289 267 232 213 226 235 286 271 223 217 181 263 257 275 273 285 306 316 310 314 311 310 313 313 309 317 324 325 322 319 316 318 316 314 312 311 314 315 313 314 313 308 304 300 298 291 274 235 221 221 218 218 220 222 228 235 233 225 207 188 179 177 180 178 181 181 179 175 177 184 191 194 193 190 182
101 111 247 174 222 255 347 58 14 296 259 244 239 189 153 220 250 263 281 267 236 163 218 198 255 287 297 303 304 305 312 314 312 307 303 300 312 321 321 319 318 317 318 317 317 315 317 321 322 319 315 311 311 313 315 309 296 274 229 214 208 208 220 222 228 227 231 223 211 195 180 174 175 177 180 178 175 172 175 179 186 190 195 195 184 186
97 105 194 185 106 10 44 20 40 324 241 246 282 253 218 210 187 224 261 273 264 232 255 282 282 283 285 289 290 292 294 297 302 299 299 296 314 320 319 319 319 321 322 320 321 323 325 322 321 318 317 317 319 321 322 318 302 275 229 212 216 220 227 233 236 229 216 206 198 182 171 170 171 175 173 172 171 173 178 181 184 188 190 190 191 190
202 154 171 41 111 92 48 43 30 249 233 271 282 280 220 115 150 68 297 288 265 237 225 242 262 276 291 297 296 292 296 300 296 282 278 282 318 324 318 315 318 322 324 323 322 322 323 322 317 315 316 321 323 325 326 317 313 287 263 236 228 239 242 234 223 211 193 190 182 175 171 169 171 173 172 173 175 179 184 183 183 186 185 188 193 195
154 101 99 260 184 245 187 160 239 297 338 353 359 189 176 249 273 300 281 290 246 222 172 234 270 289 296 298 302 305 304 297 279 280 275 299 317 314 310 315 322 325 323 321 324 322 321 321 322 322 325 329 332 337 347 336 330 319 301 302 291 261 230 201 194 179 173 177 172 168 166 168 168 170 172 175 178 183 183 180 179 182 175 186 186 187
105 202 235 98 304 120 162 310 344 12 350 275 243 267 301 229 139 128 115 287 287 261 224 236 274 287 301 306 310 315 315 318 333 317 299 324 331 326 325 326 328 328 326 326 329 328 329 328 324 327 334 336 342 352 347 341 343 329 330 326 332 44 37 22 20 65 163 168 164 152 146 150 157 164 169 174 184 186 185 182 182 184 180 187 188 191
29 73 114 107 132 44 44 57 235 180 249 214 248 247 277 151 128 118 69 310 264 247 241 197 270 294 302 311 313 330 339 342 332 326 335 338 335 336 334 332 331 330 329 328 325 325 328 326 325 330 339 348 355 351 350 347 353 2 13 12 26 46 51 43 32 36 47 31 48 94 138 152 158 167 173 184 192 185 182 184 186 186 183 192 193 199
32 353 25 24 35 162 129 99 281 200 241 259 228 267 250 158 131 92 327 278 263 257 235 237 292 295 302 306 319 337 344 337 329 326 330 328 330 329 332 331 332 331 329 328 328 331 331 328 335 348 353 355 349 344 349 351 358 7 11 16 20 27 20 354 292 175 149 127 116 111 112 125 148 164 178 186 174 162 174 167 165 173 180 193 197 202
343 326 47 224 177 189 152 265 323 305 271 256 253 217 157 166 120 356 321 293 266 263 266 260 284 283 289 307 326 329 308 285 294 304 316 319 327 329 330 327 325 324 325 329 328 329 333 336 343 351 353 352 346 347 349 353 359 3 4 7 12 4 349 336 327 312 130 134 133 130 132 132 144 159 180 184 186 188 185 178 183 183 190 194 200 207
316 134 302 77 92 208 195 178 246 254 241 205 273 141 159 118 337 281 249 202 298 297 302 277 274 284 285 287 285 264 282 300 306 312 318 319 322 319 323 326 326 327 327 326 326 331 338 342 347 353 354 355 349 348 355 357 1 358 357 2 6 351 327 329 328 323 73 118 132 139 146 152 159 164 176 184 174 185 214 222 206 196 197 202 206 213
201 130 229 194 159 85 47 43 1 2 283 167 134 74 106 128 229 210 256 296 202 267 272 298 243 275 275 292 288 283 296 310 317 320 322 320 323 327 329 331 331 331 332 334 338 343 344 346 349 348 353 355 351 352 356 360 2 355 352 3 355 340 331 346 339 335 3 83 107 143 150 152 150 155 160 174 179 182 213 217 218 219 211 210 216 218
202 119 276 272 184 184 108 175 211 211 224 216 154 214 225 208 197 163 132 286 287 213 262 246 279 251 277 264 287 298 305 312 317 322 327 325 326 327 329 331 334 336 336 337 337 339 342 345 346 349 355 351 358 358 2 2 358 354 354 355 341 348 350 1 357 6 26 33 24 20 13 116 157 163 167 166 178 205 212 218 222 224 217 215 218 219
216 187 178 217 218 150 199 219 245 230 204 214 186 220 218 236 179 174 170 200 247 291 198 205 266 291 289 280 288 294 309 317 316 319 331 324 327 330 330 332 335 338 339 340 341 342 343 349 348 350 357 2 0 357 5 4 354 351 353 345 343 348 353 2 9 20 25 43 108 105 104 144 175 193 190 190 183 201 218 225 221 224 218 216 217 218
256 176 180 111 249 267 258 235 248 284 253 250 234 231 234 268 241 157 172 233 245 228 202 221 271 282 295 287 308 305 309 313 326 326 328 325 329 330 331 335 341 342 342 344 346 348 349 349 353 356 1 4 358 357 6 3 357 352 343 346 347 350 348 4 7 10 6 2 28 46 1 280 249 232 212 202 196 200 206 219 222 221 215 208 211 218
267 137 125 205 277 48 278 322 173 235 240 275 270 280 247 234 214 179 181 204 239 238 244 235 235 266 267 288 278 278 306 324 329 324 324 322 331 334 335 338 339 342 345 347 346 350 353 354 357 1 2 5 359 0 359 5 355 347 348 351 350 350 358 7 8 6 357 348 12 10 2 347 327 276 234 223 214 204 208 217 227 222 212 205 205 209
335 182 149 230 128 164 244 256 248 261 258 251 232 269 251 232 229 213 204 201 211 246 246 272 262 273 265 284 280 301 309 320 338 328 328 326 330 334 336 338 338 342 345 346 349 351 355 359 0 1 2 3 356 357 356 0 5 6 354 353 353 355 5 13 11 2 355 11 23 8 341 328 318 317 281 250 218 216 222 217 219 213 207 204 204 200
183 122 235 172 206 268 304 293 289 304 308 285 268 245 240 223 204 227 224 233 251 281 297 294 224 246 268 269 290 302 326 323 330 325 322 323 330 335 335 337 339 340 344 349 349 354 358 1 2 2 3 0 356 358 2 0 3 5 4 356 354 357 2 7 9 5 0 7 9 358 340 321 309 304 284 227 255 244 237 226 215 209 200 211 194 202
100 222 227 83 309 291 238 255 122 339 295 291 291 245 232 220 195 179 115 248 233 240 260 282 303 278 239 252 259 281 320 318 325 341 328 324 326 328 332 337 338 340 344 345 346 355 0 3 4 3 3 358 357 2 5 1 359 2 9 11 1 351 356 1 4 5 4 0 334 336 347 333 312 327 336 339 142 169 248 286 282 280 254 247 230 220
176 214 147 186 173 249 250 240 205 174 211 235 242 260 215 189 163 161 204 222 243 225 226 240 279 316 325 313 285 268 320 330 323 336 333 335 326 325 328 337 339 340 341 343 350 356 1 2 2 2 3 359 358 359 1 2 2 1 2 3 3 8 14 360 357 352 351 354 352 342 335 329 339 348 347 357 19 12 255 276 292 261 143 160 334 318